Wind_Speed
35 34 35 37 37 38 39 40 40 39 39 39 40 42 43 43 43 42 42 42 42 43 44 44 44 45 46 46 47 47 47 48 48 49 49 49 49 49 50 50 50 51 51 52
36 36 36 36 37 37 38 39 40 41 40 39 41 42 42 43 43 43 42 43 43 44 44 44 45 45 45 46 46 46 46 47 47 48 48 48 48 49 49 50 51 52 52 53
36 36 37 38 36 36 37 38 38 39 39 39 40 41 41 42 43 43 43 44 44 44 44 45 45 45 44 45 45 46 46 47 47 47 48 48 48 48 49 50 51 52 52 53
34 35 38 37 36 37 37 38 38 39 40 40 41 41 41 41 42 42 43 43 44 44 45 45 45 45 45 45 45 45 46 47 47 48 48 49 49 49 50 50 51 51 52 52
32 33 35 35 35 35 36 37 38 39 39 40 41 41 42 42 42 42 41 41 42 43 44 44 44 45 45 45 45 45 46 46 47 48 48 49 50 49 50 50 51 51 50 51
30 32 33 33 34 34 35 36 37 38 39 40 40 41 40 41 41 41 42 42 42 42 44 44 44 44 44 45 45 45 46 46 46 46 47 48 48 48 48 49 49 49 49 49
28 30 31 32 32 33 35 35 35 36 37 38 38 39 39 40 41 41 41 42 42 42 43 43 43 43 43 44 45 45 45 45 46 46 46 46 46 46 46 46 46 46 46 46
28 29 29 29 31 32 33 34 35 35 35 36 36 37 37 39 40 40 40 41 41 42 42 42 42 43 43 43 44 44 44 44 44 44 44 44 44 44 44 44 44 44 44 43
27 28 28 29 31 32 33 34 34 35 35 35 35 36 36 37 37 38 39 40 40 41 41 41 42 42 42 42 42 42 42 42 43 42 42 42 42 42 42 42 43 43 42 41
27 28 29 31 31 32 33 33 34 35 35 35 35 36 36 36 37 37 38 39 39 40 40 41 41 41 41 40 40 40 41 41 42 42 41 41 40 40 41 41 41 40 40 40
26 27 28 30 31 31 32 32 33 33 34 34 35 35 36 36 37 38 38 38 39 39 39 40 40 39 39 39 39 39 39 40 40 40 40 40 39 39 39 39 39 39 39 40
26 26 27 28 29 30 30 30 30 31 32 32 33 34 34 36 37 37 37 37 38 38 38 38 38 38 38 38 38 38 39 39 39 39 39 39 39 38 38 38 38 38 37 37
26 26 26 26 26 27 27 27 28 29 30 30 31 32 33 34 34 34 35 35 36 36 36 36 35 36 37 37 37 37 37 37 38 38 38 38 38 38 37 36 36 36 36 36
25 25 24 25 25 26 26 27 28 28 29 30 31 32 32 32 31 32 33 33 34 35 35 35 35 36 36 37 37 37 37 37 37 38 38 38 37 36 36 35 35 36 37 37
23 23 23 24 25 26 27 27 28 29 30 30 30 30 30 31 31 32 32 33 33 33 33 34 34 35 35 35 35 35 36 36 37 37 36 36 36 35 35 35 36 36 37 38
22 22 23 24 24 25 26 26 27 27 28 29 29 30 31 31 32 32 32 32 32 32 32 32 33 33 34 34 34 35 35 35 35 34 34 34 34 34 34 35 35 36 36 35
21 21 22 24 25 25 25 26 26 27 28 29 29 29 30 31 32 32 32 32 32 32 32 32 32 32 33 33 33 33 33 33 33 32 33 33 32 32 32 33 33 33 33 33
22 21 22 22 23 24 25 26 27 27 28 28 29 30 31 32 32 32 32 32 32 32 32 32 32 31 31 32 31 31 31 30 30 30 30 30 30 30 31 31 31 31 31 30
20 20 21 21 22 23 25 26 27 27 28 29 30 30 31 31 31 31 31 31 31 31 31 31 31 30 30 30 30 29 29 29 29 29 29 29 30 30 30 30 30 30 28 26
20 20 21 21 22 23 23 24 25 26 27 28 28 29 29 28 28 28 28 28 29 28 28 28 28 28 28 28 28 28 28 29 29 29 30 30 30 30 29 29 28 27 26 25
19 19 20 20 21 22 22 23 23 24 24 25 26 26 26 25 25 25 25 25 25 26 26 26 26 26 26 26 26 27 27 28 28 28 28 28 28 28 28 27 26 25 24 24
19 19 19 19 20 21 21 22 22 22 23 23 23 23 23 23 23 23 23 23 23 23 24 24 24 24 24 25 25 26 26 26 26 26 26 26 26 25 24 24 23 23 23 22
19 19 19 20 20 20 21 21 21 21 20 20 20 20 20 21 21 21 21 21 22 22 22 22 23 23 23 23 23 23 23 23 23 23 23 22 22 21 21 21 21 21 21 20
19 19 20 20 20 20 20 20 20 19 19 19 18 18 19 19 19 20 20 20 21 21 21 21 21 21 21 21 21 21 21 21 20 20 19 19 18 18 18 18 18 18 18 17
19 19 19 19 19 19 19 19 19 18 18 18 18 18 18 18 18 18 19 19 19 20 20 20 20 20 20 20 20 19 19 19 19 18 17 17 16 16 16 16 16 15 15 15
18 18 18 18 18 18 19 19 18 18 17 17 18 18 18 18 17 17 18 18 18 18 18 18 18 18 19 19 19 19 18 18 17 16 16 16 15 15 15 14 14 14 13 13
18 18 18 18 18 18 18 18 17 17 17 17 17 16 16 16 16 16 16 16 16 16 16 16 16 17 17 17 18 17 17 16 15 15 15 15 14 13 13 12 12 12 12 11
Wind_Direction
240 241 241 239 239 241 243 244 245 246 248 248 249 252 254 255 256 256 256 257 258 260 260 261 262 262 263 263 264 264 265 266 267 268 269 271 272 273 275 276 277 279 280 280
242 242 242 241 240 241 244 245 246 247 248 249 250 252 254 255 255 256 257 258 260 260 261 262 262 262 264 264 264 265 265 266 267 268 269 270 272 273 274 276 277 278 280 281
245 243 244 243 243 244 244 245 246 247 248 249 252 254 255 256 256 257 258 258 260 260 261 261 262 263 265 265 266 266 267 266 267 268 270 271 272 274 275 276 277 278 280 282
248 246 247 246 246 247 247 246 246 247 248 250 253 255 257 259 259 259 260 261 261 261 261 262 263 264 265 266 267 267 268 267 267 269 271 272 274 275 276 277 278 280 281 282
248 249 249 246 246 246 247 246 246 248 250 252 254 256 258 259 260 260 260 261 261 262 263 264 265 266 267 268 268 268 268 269 269 270 271 273 274 275 277 278 279 280 282 283
247 249 251 249 247 248 248 249 248 250 251 253 255 257 258 258 259 260 259 260 261 262 263 264 265 267 267 268 268 268 268 268 269 271 272 273 274 275 277 278 280 281 282 283
247 250 252 251 251 251 252 251 252 252 253 255 256 257 257 257 258 259 260 260 261 262 263 264 266 267 267 269 269 269 269 269 270 271 272 274 275 276 277 278 279 281 282 283
248 250 253 254 252 252 254 254 254 255 255 256 257 257 257 258 258 259 260 260 261 262 263 265 266 267 268 269 269 270 271 271 271 272 273 274 275 276 277 278 280 282 283 283
251 252 253 254 255 256 256 256 256 256 257 256 257 257 258 259 258 259 260 261 261 262 263 264 266 267 269 269 270 270 270 270 271 273 274 274 275 276 277 279 281 282 282 283
255 254 253 253 256 257 257 257 257 258 258 257 258 259 259 259 259 260 261 261 262 263 264 265 267 268 269 269 269 270 270 270 271 272 274 274 275 276 278 279 280 281 283 284
257 258 257 256 257 258 258 258 258 259 259 259 260 260 261 261 262 262 263 263 264 264 264 265 266 267 266 267 268 268 269 270 272 272 272 274 275 277 278 279 280 281 283 284
258 259 258 257 257 257 257 258 258 259 259 259 261 261 262 263 263 264 264 265 265 266 266 266 266 266 266 267 268 269 270 270 270 272 273 274 275 276 277 278 279 281 282 284
258 259 260 259 259 258 258 258 258 259 260 261 262 263 263 264 264 265 265 266 266 266 266 266 265 266 266 267 268 269 270 271 271 272 273 275 276 277 277 278 279 281 283 284
258 259 261 261 261 260 260 260 260 261 263 264 265 265 265 264 264 265 266 266 267 267 266 265 265 266 267 267 268 269 271 272 272 273 274 275 275 276 277 279 280 281 283 285
259 260 261 262 264 263 263 262 262 263 264 265 265 265 264 265 266 266 267 267 268 267 266 266 267 268 269 269 270 270 272 273 274 275 275 275 275 276 278 280 281 283 284 285
263 263 264 265 266 266 264 264 264 264 265 265 266 265 265 266 266 267 267 267 267 267 268 268 268 269 269 270 272 273 273 274 275 275 275 276 277 279 280 282 283 285 285 286
266 268 270 270 269 270 268 267 267 267 266 267 267 267 267 268 269 268 267 267 267 268 269 269 269 270 271 272 273 274 274 274 274 274 276 277 279 280 281 282 283 285 286 287
267 268 269 270 271 271 270 270 270 270 269 268 269 269 270 270 270 270 268 267 268 268 269 269 269 271 272 273 273 273 273 273 273 274 276 277 278 279 280 282 285 286 288 289
269 270 271 272 272 273 273 274 273 272 272 272 273 273 272 272 271 270 270 269 269 269 269 269 270 271 273 273 273 273 273 272 273 274 276 277 278 279 280 282 284 286 286 286
270 272 275 276 277 278 279 278 277 277 276 275 274 273 273 272 272 272 271 271 271 270 270 270 270 271 272 273 274 274 275 275 275 276 276 277 278 279 280 281 282 283 283 283
275 276 279 280 282 282 282 282 283 281 280 277 275 273 272 272 272 271 271 271 271 270 270 271 271 272 272 273 274 276 276 276 276 277 278 278 278 279 279 279 280 280 280 281
277 279 281 284 285 285 286 286 286 285 284 282 279 275 273 272 272 271 271 270 270 270 270 271 272 273 274 274 276 277 278 278 278 278 278 278 278 279 279 279 279 278 279 279
276 279 281 284 285 286 287 287 288 287 286 283 281 278 275 273 272 271 270 270 271 271 271 272 273 274 274 276 277 279 280 280 280 279 279 279 278 278 278 279 279 278 278 278
277 280 282 285 286 286 287 288 287 286 285 284 282 281 279 276 274 272 272 272 272 272 272 273 274 275 276 277 278 280 281 280 280 280 280 280 279 278 278 279 279 279 278 278
278 281 284 285 285 286 286 288 288 287 285 285 284 283 282 280 278 276 275 275 275 275 276 276 276 277 276 277 279 280 281 281 281 280 279 279 278 278 279 278 278 278 277 277
280 282 284 286 286 288 289 289 288 286 285 286 285 284 282 280 278 278 278 277 278 278 277 277 277 277 278 279 279 279 279 280 280 279 278 277 277 277 277 277 277 276 276 275
281 283 285 286 288 290 291 290 288 286 285 287 287 285 282 281 280 280 280 281 280 279 278 277 278 279 279 279 278 278 277 278 279 279 276 275 275 274 273 275 276 276 273 272
Height
5543 5546 5549 5553 5557 5561 5564 5568 5572 5576 5579 5582 5584 5586 5589 5591 5594 5597 5599 5601 5604 5606 5607 5609 5611 5612 5613 5614 5615 5616 5616 5617 5616 5616 5616 5615 5615 5614 5613 5612 5611 5609 5606 5604
5534 5537 5540 5544 5548 5552 5555 5559 5563 5566 5570 5572 5573 5576 5578 5581 5583 5586 5588 5591 5592 5594 5596 5597 5599 5600 5601 5602 5603 5604 5604 5604 5604 5604 5603 5603 5602 5601 5600 5599 5598 5596 5594 5592
5526 5529 5531 5536 5541 5544 5547 5550 5554 5556 5561 5563 5564 5567 5569 5571 5573 5575 5577 5579 5581 5583 5584 5586 5587 5588 5589 5590 5591 5591 5592 5592 5592 5591 5591 5590 5589 5588 5587 5586 5585 5583 5581 5578
5517 5521 5523 5531 5533 5535 5538 5541 5544 5547 5550 5553 5555 5557 5559 5560 5562 5564 5566 5568 5570 5571 5573 5574 5575 5576 5577 5578 5578 5579 5579 5579 5579 5579 5578 5577 5576 5575 5574 5573 5571 5569 5567 5564
5510 5511 5514 5521 5524 5527 5529 5532 5535 5538 5540 5542 5545 5547 5548 5550 5552 5554 5556 5557 5558 5560 5561 5562 5563 5564 5565 5565 5566 5567 5567 5567 5566 5566 5566 5565 5564 5563 5561 5559 5558 5556 5553 5551
5502 5504 5506 5513 5516 5517 5520 5523 5526 5528 5530 5532 5534 5537 5540 5540 5541 5543 5544 5546 5547 5549 5550 5551 5552 5552 5553 5553 5554 5554 5554 5554 5554 5553 5553 5552 5551 5549 5548 5546 5545 5543 5541 5538
5495 5496 5499 5504 5507 5509 5513 5515 5517 5518 5520 5522 5524 5527 5529 5529 5531 5532 5533 5535 5536 5537 5538 5539 5540 5540 5541 5541 5542 5542 5542 5541 5541 5541 5540 5539 5538 5536 5535 5533 5532 5530 5528 5526
5489 5490 5496 5497 5498 5501 5502 5504 5507 5509 5510 5512 5514 5516 5517 5519 5520 5521 5522 5524 5525 5526 5527 5528 5528 5529 5529 5529 5530 5530 5530 5530 5529 5528 5527 5527 5526 5524 5523 5521 5520 5518 5516 5514
5483 5486 5487 5488 5489 5491 5493 5495 5497 5499 5501 5503 5505 5506 5507 5509 5510 5511 5512 5513 5514 5515 5516 5516 5517 5518 5518 5518 5518 5518 5518 5517 5517 5516 5516 5515 5514 5512 5511 5509 5508 5506 5504 5502
5475 5477 5478 5480 5481 5483 5484 5486 5488 5490 5492 5493 5495 5496 5497 5498 5499 5500 5501 5502 5503 5504 5504 5505 5506 5506 5506 5506 5506 5506 5506 5506 5505 5505 5504 5503 5502 5501 5500 5498 5496 5494 5492 5490
5468 5470 5470 5472 5473 5474 5476 5477 5479 5480 5482 5483 5485 5486 5487 5488 5489 5490 5491 5491 5492 5492 5493 5493 5494 5494 5494 5494 5494 5494 5494 5494 5494 5493 5492 5492 5491 5490 5488 5487 5484 5483 5481 5479
5462 5463 5463 5465 5465 5466 5468 5469 5470 5472 5473 5474 5475 5476 5477 5478 5478 5479 5480 5480 5481 5481 5482 5482 5482 5483 5483 5483 5483 5483 5483 5483 5482 5482 5481 5481 5480 5479 5477 5476 5474 5471 5470 5468
5454 5455 5456 5457 5458 5459 5460 5461 5462 5463 5464 5465 5466 5466 5467 5468 5468 5468 5469 5469 5470 5470 5471 5471 5471 5472 5472 5472 5472 5472 5472 5471 5471 5471 5470 5469 5468 5467 5467 5466 5463 5461 5459 5458
5447 5448 5449 5450 5451 5452 5453 5453 5454 5455 5455 5456 5457 5457 5457 5458 5458 5458 5459 5459 5459 5460 5460 5460 5461 5461 5461 5461 5461 5461 5461 5461 5460 5460 5459 5458 5458 5457 5456 5455 5453 5451 5449 5447
5441 5442 5443 5443 5444 5444 5445 5445 5446 5447 5447 5447 5447 5448 5448 5449 5449 5449 5449 5449 5449 5449 5449 5450 5450 5450 5450 5450 5450 5450 5450 5450 5449 5449 5448 5447 5446 5446 5445 5444 5442 5441 5439 5437
5435 5436 5436 5436 5437 5437 5437 5437 5438 5438 5438 5438 5439 5439 5439 5439 5439 5439 5439 5439 5439 5440 5439 5440 5440 5440 5440 5440 5440 5440 5439 5439 5439 5438 5437 5437 5436 5435 5434 5433 5431 5430 5428 5426
5430 5430 5430 5430 5430 5430 5430 5430 5430 5430 5430 5430 5430 5430 5430 5429 5429 5429 5429 5429 5429 5430 5430 5430 5430 5430 5430 5429 5429 5429 5429 5429 5428 5428 5427 5426 5425 5425 5424 5423 5421 5420 5418 5416
5423 5423 5423 5423 5423 5423 5422 5422 5422 5422 5421 5421 5421 5421 5420 5420 5420 5419 5419 5419 5419 5419 5419 5419 5420 5420 5420 5419 5419 5419 5419 5419 5418 5418 5417 5417 5416 5415 5414 5413 5412 5410 5409 5407
5417 5417 5417 5417 5416 5416 5415 5414 5414 5413 5413 5412 5412 5411 5410 5410 5409 5409 5409 5409 5409 5409 5409 5409 5409 5410 5410 5409 5409 5409 5409 5409 5409 5408 5408 5407 5406 5406 5405 5404 5403 5401 5400 5399
5412 5411 5411 5410 5409 5408 5408 5407 5406 5405 5404 5403 5402 5402 5401 5401 5400 5400 5400 5400 5400 5400 5400 5400 5400 5400 5400 5400 5400 5400 5400 5399 5399 5399 5398 5398 5397 5396 5395 5395 5394 5393 5392 5391
5406 5405 5404 5403 5402 5401 5400 5399 5398 5397 5396 5395 5394 5393 5393 5392 5392 5392 5392 5392 5391 5391 5391 5392 5392 5392 5392 5391 5391 5391 5390 5390 5390 5389 5388 5388 5387 5387 5386 5386 5385 5384 5384 5383
5400 5399 5398 5397 5396 5395 5394 5392 5391 5390 5388 5387 5386 5386 5385 5385 5385 5384 5384 5384 5384 5384 5384 5384 5384 5383 5383 5383 5383 5382 5382 5381 5381 5380 5379 5379 5378 5378 5378 5377 5377 5376 5376 5375
5394 5393 5392 5391 5390 5389 5387 5386 5385 5383 5382 5381 5380 5379 5378 5378 5377 5377 5377 5377 5376 5376 5376 5376 5376 5376 5376 5375 5375 5374 5373 5373 5372 5372 5371 5371 5370 5370 5370 5369 5369 5369 5368 5368
5388 5387 5386 5385 5383 5382 5381 5379 5378 5377 5376 5374 5373 5372 5372 5371 5371 5370 5370 5370 5370 5369 5369 5369 5369 5368 5368 5368 5367 5366 5366 5365 5365 5364 5364 5364 5363 5363 5363 5362 5362 5362 5361 5361
5382 5381 5380 5378 5377 5376 5375 5373 5372 5371 5369 5368 5367 5366 5365 5365 5364 5364 5363 5363 5363 5362 5362 5362 5361 5361 5360 5360 5360 5359 5359 5358 5358 5358 5358 5357 5357 5357 5357 5356 5356 5356 5356 5355
5376 5375 5374 5373 5371 5370 5369 5367 5366 5365 5364 5363 5362 5361 5360 5359 5358 5358 5357 5357 5356 5356 5355 5355 5354 5354 5354 5353 5353 5353 5352 5352 5352 5352 5352 5351 5351 5351 5351 5351 5351 5350 5350 5350
5370 5369 5368 5367 5366 5365 5363 5361 5360 5359 5358 5357 5356 5355 5354 5354 5353 5352 5352 5351 5350 5350 5349 5348 5348 5348 5347 5347 5347 5347 5346 5346 5346 5346 5346 5346 5346 5346 5346 5346 5346 5346 5346 5346